IRIDIUM 50

Last updated on Wed Nov 29 2017 00:19:02 GMT+0000 (Coordinated Universal Time)

1 25172U 98010D 17332.28479546 .00000157 00000-0 48862-4 0 9991 2 25172 86.3952 281.7443 0002069 82.2627 277.8804 14.34218771 35287
UTC large
Height (km)
Speed (km/s)
/
Latitude / Longitude
Inclination (degrees)
Orbital Period (minutes)
Azimuth
Elevation
Range (km)
Doppler Factor

Next 0 passes for location: London (51.5072 / 0.1276)

Sorry there are no passes over London.